Date String (YYYY-MM-DD hh:mm:ss) UTC,Instrument flags,absolute air pressure of the measurement (hPa),sample flow rate (lpm),inlet stack bypass flow (lpm),air temperature of the measurement (°C),ambient temperature measured by the external sensor (°C),aerosol sample conditioner tube jacket temperature (°C),OPC LED temperature (°C),internal box temperature (°C),relative humidity of the measurement (%),span deviation,mass concentration of particles derived from Lorenz-Mie calculation of OPC scattering (μg/m³),mass concentration of particles derived from Lorenz-Mie calculation of OPC scattering (μg/m³),mass concentration of particles derived from Lorenz-Mie calculation of OPC scattering (μg/m³)
DateTimeUTC,F1_M11,P_M11,Q1_M11,Q2_M11,T1_M11,T2_M11,T3_M11,T4_M11,T5_M11,U1_M11,ZSPAN_M11,X0_M11,X2_M11,X1_M11
2024-06-11 03:00:00,SystemResetWarning,0828.6,5.00,000.00,030.1,029.6,000.0,038.2,031.9,026.6,0000.0,0021.21,0005.39,0004.13
2024-06-11 03:01:00,SystemResetWarning,0828.6,4.99,000.00,030.1,029.6,000.0,038.2,031.9,026.6,0000.0,0020.28,0005.41,0004.10
2024-06-11 03:02:00,SystemResetWarning,0828.6,5.00,000.00,030.2,029.7,000.0,038.3,031.9,026.5,0000.0,0020.19,0005.44,0004.07
2024-06-11 03:03:00,SystemResetWarning,0828.6,5.00,000.00,030.2,029.5,000.0,038.3,031.8,026.3,0000.0,0020.20,0005.45,0004.04
2024-06-11 03:04:00,SystemResetWarning,0828.6,5.00,000.00,029.9,027.4,000.0,038.4,030.9,026.6,0000.0,0019.32,0005.48,0004.03
2024-06-11 03:05:00,SystemResetWarning,0828.6,5.01,000.00,029.6,026.5,000.0,038.4,030.3,027.1,0000.0,0019.49,0005.49,0004.01
2024-06-11 03:06:00,SystemResetWarning,0828.6,5.00,000.00,029.4,026.7,000.0,038.3,030.3,027.4,0000.0,0020.62,0005.52,0004.01
2024-06-11 03:07:00,SystemResetWarning,0828.5,5.00,000.00,029.4,027.1,000.0,038.2,030.6,027.4,0000.0,0020.40,0005.51,0004.00
2024-06-11 03:08:00,SystemResetWarning,0828.6,5.00,000.00,029.4,027.5,000.0,038.1,030.8,026.7,0000.0,0019.84,0005.49,0004.00
2024-06-11 03:09:00,SystemResetWarning,0828.6,5.00,000.00,029.4,027.9,000.0,038.0,031.0,026.7,0000.0,0019.41,0005.51,0003.99
2024-06-11 03:10:00,SystemResetWarning,0828.6,5.00,000.00,029.5,028.2,000.0,038.0,031.1,026.3,0000.0,0020.36,0005.48,0003.96
2024-06-11 03:11:00,SystemResetWarning,0828.6,5.00,000.00,029.5,028.4,000.0,038.0,031.2,026.3,0000.0,0022.29,0005.47,0003.93
2024-06-11 03:12:00,SystemResetWarning,0828.6,4.99,000.00,029.6,028.6,000.0,038.0,031.3,026.0,0000.0,0022.29,0005.41,0003.92
2024-06-11 03:13:00,SystemResetWarning,0828.6,5.00,000.00,029.6,028.8,000.0,038.0,031.4,025.9,0000.0,0022.01,0005.34,0003.89
2024-06-11 03:14:00,SystemResetWarning,0828.6,5.00,000.00,029.7,029.0,000.0,038.0,031.5,025.7,0000.0,0021.85,0005.25,0003.84
2024-06-11 03:15:00,SystemResetWarning,0828.6,5.00,000.00,029.8,029.1,000.0,038.0,031.5,025.6,0000.0,0021.30,0005.14,0003.79
2024-06-11 03:16:00,SystemResetWarning,0828.7,5.00,000.00,029.8,029.2,000.0,038.0,031.6,025.5,0000.0,0020.14,0005.03,0003.74
2024-06-11 03:17:00,SystemResetWarning,0828.8,5.01,000.00,029.9,029.3,000.0,038.1,031.7,025.4,0000.0,0018.84,0004.95,0003.71
2024-06-11 03:18:00,SystemResetWarning,0828.8,5.00,000.00,029.9,029.4,000.0,038.1,031.7,025.5,0000.0,0018.87,0004.94,0003.67
2024-06-11 03:19:00,SystemResetWarning,0828.8,5.00,000.00,030.0,029.5,000.0,038.1,031.8,025.5,0000.0,0018.44,0004.94,0003.62
2024-06-11 03:20:00,SystemResetWarning,0828.9,5.01,000.00,030.0,029.6,000.0,038.2,031.8,025.7,0000.0,0017.88,0004.89,0003.61
2024-06-11 03:21:00,SystemResetWarning,0829.0,5.00,000.00,030.1,029.6,000.0,038.2,031.9,025.6,0000.0,0016.03,0004.82,0003.60
2024-06-11 03:22:00,SystemResetWarning,0829.0,5.00,000.00,030.1,029.7,000.0,038.2,032.0,025.4,0000.0,0014.00,0004.83,0003.58
2024-06-11 03:23:00,SystemResetWarning,0828.9,5.00,000.00,030.2,029.7,000.0,038.3,032.0,025.2,0000.0,0014.18,0004.89,0003.56
2024-06-11 03:24:00,SystemResetWarning,0828.9,4.98,000.00,030.0,028.0,000.0,038.3,031.1,025.6,0000.0,0013.60,0004.90,0003.55
2024-06-11 03:25:00,SystemResetWarning,0828.8,5.02,000.00,029.6,026.5,000.0,038.4,030.4,026.2,0000.0,0013.48,0004.92,0003.56
2024-06-11 03:26:00,SystemResetWarning,0828.9,5.00,000.00,029.4,026.6,000.0,038.3,030.3,026.1,0000.0,0013.80,0004.94,0003.56
2024-06-11 03:27:00,SystemResetWarning,0829.0,5.00,000.00,029.4,027.0,000.0,038.2,030.5,025.9,0000.0,0013.85,0004.96,0003.56
2024-06-11 03:28:00,SystemResetWarning,0828.9,4.99,000.00,029.4,027.4,000.0,038.1,030.8,025.8,0000.0,0013.96,0004.99,0003.56
2024-06-11 03:29:00,SystemResetWarning,0829.0,5.00,000.00,029.4,027.8,000.0,038.0,030.9,025.7,0000.0,0013.32,0004.92,0003.55
2024-06-11 03:30:00,SystemResetWarning,0829.1,5.00,000.00,029.5,028.1,000.0,038.0,031.1,025.7,0000.0,0014.45,0004.88,0003.55
2024-06-11 03:31:00,SystemResetWarning,0829.1,5.01,000.00,029.5,028.3,000.0,038.0,031.2,025.8,0000.0,0014.51,0004.89,0003.54
2024-06-11 03:32:00,SystemResetWarning,0829.1,5.01,000.00,029.6,028.6,000.0,038.0,031.3,025.8,0000.0,0014.33,0004.92,0003.53
2024-06-11 03:33:00,SystemResetWarning,0829.1,4.99,000.00,029.6,028.8,000.0,038.0,031.4,025.6,0000.0,0014.28,0004.85,0003.51
2024-06-11 03:34:00,SystemResetWarning,0829.1,5.00,000.00,029.7,028.9,000.0,038.0,031.4,025.5,0000.0,0014.11,0004.82,0003.51
2024-06-11 03:35:00,SystemResetWarning,0829.1,5.01,000.00,029.7,029.0,000.0,038.0,031.5,025.3,0000.0,0013.87,0004.80,0003.51
2024-06-11 03:36:00,SystemResetWarning,0829.1,5.00,000.00,029.8,029.2,000.0,038.0,031.6,025.2,0000.0,0013.65,0004.80,0003.50
2024-06-11 03:37:00,SystemResetWarning,0829.1,4.99,000.00,029.8,029.3,000.0,038.0,031.6,025.2,0000.0,0013.21,0004.75,0003.48
2024-06-11 03:38:00,SystemResetWarning,0829.1,5.00,000.00,029.9,029.4,000.0,038.1,031.7,025.1,0000.0,0013.95,0004.75,0003.47
2024-06-11 03:39:00,SystemResetWarning,0829.1,5.01,000.00,030.0,029.4,000.0,038.1,031.7,025.0,0000.0,0013.46,0004.71,0003.46
2024-06-11 03:40:00,SystemResetWarning,0829.2,5.00,000.00,030.0,029.5,000.0,038.1,031.8,025.0,0000.0,0013.32,0004.69,0003.44
2024-06-11 03:41:00,SystemResetWarning,0829.2,5.00,000.00,030.1,029.6,000.0,038.2,031.8,024.9,0000.0,0011.94,0004.66,0003.43
2024-06-11 03:42:00,SystemResetWarning,0829.2,5.00,000.00,030.1,029.6,000.0,038.2,031.9,024.9,0000.0,0011.29,0004.62,0003.41
2024-06-11 03:43:00,SystemResetWarning,0829.3,5.00,000.00,030.2,029.7,000.0,038.3,032.0,024.8,0000.0,0011.15,0004.53,0003.39
2024-06-11 03:44:00,SystemResetWarning,0829.3,5.00,000.00,030.2,029.8,000.0,038.3,032.0,024.7,0000.0,0011.15,0004.52,0003.37
2024-06-11 03:45:00,SystemResetWarning,0829.4,5.00,000.00,030.2,029.8,000.0,038.3,032.0,025.8,0000.0,0011.56,0004.46,0003.35
2024-06-11 03:46:00,SystemResetWarning,0829.3,4.99,000.00,030.2,029.0,000.0,038.4,031.7,025.8,0000.0,0011.59,0004.46,0003.34
2024-06-11 03:47:00,SystemResetWarning,0829.2,5.01,000.00,029.9,026.8,000.0,038.4,030.7,026.3,0000.0,0011.51,0004.49,0003.35
2024-06-11 03:48:00,SystemResetWarning,0829.2,5.02,000.00,029.6,026.4,000.0,038.4,030.4,026.7,0000.0,0011.48,0004.50,0003.36
2024-06-11 03:49:00,SystemResetWarning,0829.2,4.99,000.00,029.4,026.8,000.0,038.3,030.5,026.7,0000.0,0011.03,0004.47,0003.38
2024-06-11 03:50:00,SystemResetWarning,0829.2,5.00,000.00,029.4,027.2,000.0,038.2,030.8,026.9,0000.0,0011.61,0004.51,0003.41
2024-06-11 03:51:00,SystemResetWarning,0829.2,5.00,000.00,029.5,027.6,000.0,038.1,030.9,027.0,0000.0,0012.34,0004.59,0003.45
2024-06-11 03:52:00,SystemResetWarning,0829.3,5.01,000.00,029.5,028.0,000.0,038.1,031.1,026.8,0000.0,0013.73,0004.64,0003.49
2024-06-11 03:53:00,SystemResetWarning,0829.4,4.99,000.00,029.5,028.2,000.0,038.0,031.2,026.9,0000.0,0014.92,0004.73,0003.52
2024-06-11 03:54:00,SystemResetWarning,0829.4,4.99,000.00,029.6,028.5,000.0,038.0,031.3,026.8,0000.0,0016.72,0004.79,0003.56
2024-06-11 03:55:00,SystemResetWarning,0829.3,4.99,000.00,029.6,028.6,000.0,038.0,031.3,026.7,0000.0,0017.02,0004.86,0003.60
2024-06-11 03:56:00,SystemResetWarning,0829.3,5.00,000.00,029.7,028.8,000.0,038.0,031.4,027.0,0000.0,0017.43,0004.95,0003.64
2024-06-11 03:57:00,SystemResetWarning,0829.4,5.00,000.00,029.7,028.9,000.0,038.0,031.5,027.3,0000.0,0017.71,0004.99,0003.68
2024-06-11 03:58:00,SystemResetWarning,0829.3,5.00,000.00,029.8,029.1,000.0,038.1,031.5,027.5,0000.0,0017.98,0004.97,0003.70
2024-06-11 03:59:00,SystemResetWarning,0829.3,5.00,000.00,029.8,029.2,000.0,038.1,031.6,027.6,0000.0,0017.86,0005.03,0003.73
